Voltar ao catálogo

STARLINK-37666

AtivoComunicaçõesSSO
NORAD 69046·PAYLOAD·🇺🇸 United States

Lançado May 6, 2026 de Vandenberg Space Force Base

Loading…

Próximas Passagens (próximas 24 horas)

TLE

AtualizadoSource: CelesTrak SupGP

Época: Sep 14, 2026, 23:33 UTC

1 69046C 26101X   26257.98173611  .00091341  00000+0  28356-2 0  2573
2 69046  97.2848 111.6155 0001721  92.6708  54.4807 15.33391030    15

Acompanhe STARLINK-37666 em tempo real com AllMySat

Download on the App Store